[[{"header":{"parameterUnit":"m.s-1","parameterCategory":1,"la1":30.2991,"la2":30.254,"lo1":-89.0895,"lo2":-89.0444,"dy":0.0017,"dx":0.0017,"nx":28,"ny":28,"refTime":"2023-06-28T21:00:00:Z","depth":0,"parameterNumber":2,"parameterNumberName":"U-component_of_WINDS"},"data":[0,0,0,0,0,0,0,0,0,0,0,0,0,0,0,0,0,0,0,0,0,0,0,0,0,0,0,0,0,0,0,0,0,0,0,0,0,0,0,0,0,0,0,0,0,0,0,0,0,0,0,0,0,0,0,0,0,0,-1.7158,-1.7157,0,-1.7066,-1.7065,-1.7064,-1.7063,-1.7064,-1.7065,-1.7066,-1.6966,-1.6962,-1.6959,0,0,0,0,0,0,0,0,0,0,0,0,0,-1.7329,-1.7326,-1.7158,-1.7157,-1.7156,-1.7067,-1.7065,-1.7064,-1.7063,-1.7064,-1.7065,-1.7067,-1.6967,-1.6963,-1.6958,0,0,0,0,0,0,0,0,0,0,0,0,0,-1.7248,-1.7325,-1.7159,-1.7145,-1.7143,-1.7067,-1.7065,-1.7064,-1.7062,-1.7064,-1.7066,-1.7067,-1.6969,-1.6963,-1.6958,-1.6888,0,0,-1.694,-1.6938,0,0,0,0,0,0,0,0,-1.7252,-1.7242,-1.7148,-1.7146,-1.7143,-1.7078,-1.7089,-1.7004,-1.7062,-1.7093,-1.7066,-1.7068,-1.7001,-1.6993,-1.6972,-1.6883,-1.6879,-1.694,-1.6936,-1.6934,-1.6932,0,0,0,0,0,0,0,-1.7258,-1.7245,-1.7122,-1.7147,-1.7144,-1.7142,-1.7132,-1.7073,-1.7038,-1.709,-1.709,-1.7079,-1.7,-1.6977,-1.697,-1.6877,-1.694,-1.6935,-1.6932,-1.6929,-1.6728,-1.6726,0,0,0,0,0,0,-1.7267,-1.725,-1.7125,-1.7119,-1.7203,-1.7138,-1.7127,-1.7097,-1.7039,-1.7032,-1.7078,-1.7079,-1.6986,-1.6976,-1.6966,-1.688,-1.6934,-1.6929,-1.6926,-1.673,-1.6727,-1.6725,0,0,0,0,0,0,-1.7271,-1.7256,-1.7128,-1.7185,-1.7168,-1.7133,-1.7099,-1.7094,-1.7071,-1.703,-1.7023,-1.7061,-1.6987,-1.6974,-1.6908,-1.6877,-1.6926,-1.6921,-1.6732,-1.6729,-1.6726,-1.6708,0,0,0,0,0,0,-1.7276,-1.7257,-1.7231,-1.7184,-1.7165,-1.7073,-1.7097,-1.7091,-1.7062,-1.7063,-1.7012,-1.7005,-1.6987,-1.6916,-1.6902,-1.687,-1.6917,-1.6735,-1.6731,-1.6727,-1.6711,-1.6705,-1.6699,0,0,0,0,0,-1.7282,-1.7228,-1.7229,-1.7214,-1.7132,-1.7071,-1.706,-1.7043,-1.706,-1.7032,-1.7006,-1.7007,-1.6884,-1.691,-1.6894,-1.6859,-1.6736,-1.6732,-1.6728,-1.6714,-1.6706,-1.6699,0,0,0,0,0,0,-1.7268,-1.7221,-1.7222,-1.7152,-1.7116,-1.7071,-1.7035,-1.7035,-1.6991,-1.6994,-1.6973,-1.6961,-1.6896,-1.6871,-1.6901,-1.6789,-1.6812,-1.6804,-1.6807,-1.6799,-1.6793,-1.6798,-1.6912,0,0,0,0,0,-1.7258,-1.7214,-1.7174,-1.7116,-1.7098,-1.707,-1.7043,-1.7033,-1.6994,-1.6978,-1.6947,-1.6907,-1.686,-1.6829,-1.6783,-1.6709,-1.6697,-1.6678,-1.6672,-1.6667,-1.6659,-1.6619,-1.661,-1.6711,-1.6711,-1.6711,0,0,-1.7234,-1.7203,-1.7175,-1.7112,-1.7083,-1.7037,-1.7057,-1.7006,-1.6972,-1.697,-1.6905,-1.6882,-1.6837,-1.6767,-1.6735,-1.6744,-1.663,-1.6662,-1.6658,-1.6653,-1.6614,-1.6604,-1.6595,-1.6708,-1.6708,-1.6709,0,0,-1.7166,-1.7139,-1.7087,-1.7059,-1.7016,-1.6999,-1.6987,-1.6943,-1.6928,-1.6864,-1.6862,-1.682,-1.6739,-1.6707,-1.668,-1.6606,-1.6604,-1.6592,-1.6559,-1.652,-1.6512,-1.6505,-1.6477,-1.6467,-1.6585,-1.6585,-1.6585,0,-1.7141,-1.7072,-1.706,-1.7011,-1.6983,-1.6983,-1.693,-1.6903,-1.6846,-1.6826,-1.684,-1.674,-1.6709,-1.6632,-1.6614,-1.6593,-1.6578,-1.6595,-1.6515,-1.6507,-1.65,-1.6473,-1.6463,-1.6584,-1.6584,-1.6584,-1.6584,0,-1.7043,-1.6996,-1.696,-1.6908,-1.6876,-1.6825,-1.6805,-1.6774,-1.6769,-1.675,-1.6686,-1.6651,-1.6598,-1.658,-1.6573,-1.6502,-1.651,-1.652,-1.6541,-1.6489,-1.6464,-1.6453,-1.6582,-1.6582,-1.6583,-1.6583,0,0,-1.6958,-1.6905,-1.6891,-1.6868,-1.6823,-1.6786,-1.6736,-1.6687,-1.6661,-1.6624,-1.658,-1.6514,-1.6523,-1.6493,-1.6483,-1.6449,-1.6392,-1.6463,-1.6461,-1.6449,-1.6311,-1.6301,-1.629,-1.6393,-1.6391,-1.6389,-1.6314,0,-1.6884,-1.6796,-1.6786,-1.6707,-1.6663,-1.6666,-1.6622,-1.6589,-1.6571,-1.6531,-1.6511,-1.6464,-1.6481,-1.6463,-1.643,-1.6406,-1.6363,-1.6412,-1.6349,-1.6347,-1.6357,-1.6276,-1.6266,-1.6196,-1.6304,-1.6302,-1.6301,0,-1.6784,-1.6747,-1.6664,-1.6627,-1.6609,-1.6569,-1.6525,-1.6487,-1.6451,-1.6441,-1.6409,-1.6405,-1.6353,-1.6381,-1.6308,-1.6341,-1.6316,-1.6301,-1.6298,-1.6288,-1.6318,-1.6262,-1.6173,-1.6161,-1.6285,-1.6287,-1.6288,0,-1.6728,-1.6658,-1.6599,-1.658,-1.6536,-1.6509,-1.6489,-1.6455,-1.6427,-1.6388,-1.637,-1.6325,-1.63,-1.6265,-1.6249,-1.6271,-1.6176,-1.6203,-1.6164,-1.6165,-1.614,-1.6141,-1.6043,-1.613,-1.613,-1.6131,-1.6131,0,-1.6644,-1.6592,-1.6574,-1.6537,-1.648,-1.647,-1.6414,-1.6395,-1.6365,-1.6325,-1.6325,-1.6287,-1.6269,-1.6228,-1.6216,-1.6157,-1.6146,-1.6135,-1.6131,-1.6133,-1.6134,-1.6112,-1.6116,-1.6128,-1.6128,-1.6129,-1.613,0,-1.6569,-1.6555,-1.6491,-1.6457,-1.6448,-1.6407,-1.6377,-1.6341,-1.6327,-1.6276,-1.6263,-1.6239,-1.6191,-1.6173,-1.6114,-1.6106,-1.6037,-1.6039,-1.6049,-1.6047,-1.6009,-1.6012,-1.5891,-1.5874,-1.5975,-1.5974,-1.5974,0,-1.6514,-1.6476,-1.6439,-1.6413,-1.6393,-1.6351,-1.6324,-1.6314,-1.6285,-1.6243,-1.6212,-1.6166,-1.6127,-1.6051,-1.6027,-1.5982,-1.5981,-1.5942,-1.5974,-1.5977,-1.5977,-1.5979,-1.5974,-1.5935,-1.5934,-1.5933,-1.5932,0,-1.6418,-1.6414,-1.6376,-1.6336,-1.6304,-1.6271,-1.6239,-1.6218,-1.6203,-1.6171,-1.6123,-1.6094,-1.6036,-1.5989,-1.5944,-1.5923,-1.5924,-1.5924,-1.5912,-1.591,-1.5917,-1.5911,-1.6029,-1.5925,-1.5926,-1.5926,-1.5926,-1.5927,-1.635,-1.6316,-1.6285,-1.6243,-1.6219,-1.619,-1.6156,-1.6139,-1.6099,-1.6052,-1.605,-1.5998,-1.5965,-1.5906,-1.5883,-1.5842,-1.5852,-1.5835,-1.5831,-1.5826,-1.5822,-1.5928,-1.5834,-1.5834,-1.5834,-1.5835,-1.5835,0,-1.6251,-1.6233,-1.6195,-1.6152,-1.6119,-1.6128,-1.6094,-1.6065,-1.6021,-1.5991,-1.5955,-1.5901,-1.5857,-1.5832,-1.5787,-1.576,-1.5759,-1.5748,-1.5747,-1.5742,-1.5816,-1.583,-1.5749,-1.5749,-1.5749,-1.5749,-1.5749,-1.5749,-1.6195,-1.6138,-1.6132,-1.6063,-1.6045,-1.5996,-1.5976,-1.595,-1.5926,-1.5867,-1.5831,-1.5817,-1.5789,-1.5743,-1.5703,-1.5697,-1.5679,-1.5666,-1.566,-1.5729,-1.5737,-1.5745,-1.5758,-1.5663,-1.5663,-1.5589,-1.5589,-1.5588]},{"header":{"parameterUnit":"m.s-1","parameterCategory":1,"la1":30.2991,"la2":30.254,"lo1":-89.0895,"lo2":-89.0444,"dy":0.0017,"dx":0.0017,"nx":28,"ny":28,"refTime":"2023-06-28T21:00:00:Z","depth":0,"parameterNumber":3,"parameterNumberName":"V-component_of_WINDS"},"data":[0,0,0,0,0,0,0,0,0,0,0,0,0,0,0,0,0,0,0,0,0,0,0,0,0,0,0,0,0,0,0,0,0,0,0,0,0,0,0,0,0,0,0,0,0,0,0,0,0,0,0,0,0,0,0,0,0,0,2.3525,2.3526,0,2.3567,2.3568,2.3568,2.3625,2.3626,2.3627,2.3628,2.3667,2.3668,2.3668,0,0,0,0,0,0,0,0,0,0,0,0,0,2.3491,2.3491,2.3525,2.3526,2.3526,2.3567,2.3568,2.3568,2.3625,2.3626,2.3627,2.3628,2.3667,2.3668,2.3668,0,0,0,0,0,0,0,0,0,0,0,0,0,2.3517,2.3492,2.3525,2.3559,2.3563,2.3567,2.3568,2.3568,2.3624,2.3626,2.3627,2.3629,2.3667,2.3668,2.3668,2.364,0,0,2.3669,2.3669,0,0,0,0,0,0,0,0,2.3515,2.3518,2.3554,2.3557,2.3561,2.3592,2.357,2.3592,2.3624,2.3601,2.3628,2.3629,2.3641,2.3644,2.3648,2.3642,2.3644,2.3669,2.3669,2.3669,2.3669,0,0,0,0,0,0,0,2.3513,2.3516,2.3542,2.3554,2.3559,2.3572,2.3577,2.3575,2.3612,2.3603,2.3607,2.3612,2.3643,2.3648,2.3649,2.3645,2.3669,2.3669,2.3669,2.3669,2.3617,2.3616,0,0,0,0,0,0,2.3507,2.3514,2.354,2.3543,2.3541,2.3571,2.3577,2.3581,2.3613,2.3619,2.361,2.3614,2.3647,2.3649,2.3651,2.362,2.3669,2.3669,2.3669,2.3619,2.3617,2.3615,0,0,0,0,0,0,2.3506,2.3509,2.3539,2.353,2.3535,2.357,2.3574,2.3581,2.3585,2.3618,2.3625,2.3608,2.3648,2.3651,2.3643,2.3622,2.3669,2.3669,2.3621,2.3618,2.3616,2.3559,0,0,0,0,0,0,2.3505,2.3508,2.3499,2.3529,2.3535,2.353,2.3573,2.3581,2.3586,2.3591,2.3618,2.3624,2.3649,2.3642,2.3643,2.3624,2.367,2.3623,2.362,2.3617,2.3563,2.3555,2.3548,0,0,0,0,0,2.3503,2.348,2.3498,2.3501,2.3524,2.3529,2.3532,2.3563,2.3584,2.3575,2.3596,2.3623,2.3625,2.3641,2.3642,2.3623,2.3624,2.362,2.3617,2.3566,2.3556,2.3548,0,0,0,0,0,0,2.3445,2.3485,2.3505,2.3491,2.3507,2.3539,2.3527,2.3552,2.3561,2.3565,2.3602,2.3608,2.3595,2.3608,2.3625,2.3597,2.3628,2.3625,2.3589,2.358,2.3573,2.3569,2.367,0,0,0,0,0,2.3431,2.3433,2.3467,2.3452,2.3458,2.3491,2.3495,2.3517,2.3534,2.354,2.3561,2.3575,2.3579,2.358,2.3586,2.3565,2.3571,2.3553,2.3545,2.3539,2.3535,2.3524,2.3516,2.3604,2.3604,2.3604,0,0,2.3402,2.3424,2.3422,2.3441,2.3455,2.3455,2.3496,2.3494,2.3494,2.354,2.3533,2.3549,2.3567,2.3552,2.3547,2.3563,2.3513,2.3535,2.353,2.3529,2.352,2.3512,2.3504,2.3602,2.3602,2.3603,0,0,2.3347,2.3365,2.3353,2.3367,2.3389,2.3411,2.3408,2.3436,2.3449,2.3443,2.3477,2.3477,2.3483,2.3494,2.3501,2.345,2.3475,2.3451,2.3413,2.3402,2.3395,2.3389,2.337,2.3362,2.3448,2.3448,2.3447,0,2.3307,2.3309,2.3344,2.334,2.3347,2.3389,2.3377,2.3388,2.341,2.3413,2.3432,2.344,2.3455,2.3443,2.3431,2.3435,2.3432,2.3448,2.3393,2.3387,2.3382,2.3364,2.3357,2.3444,2.3445,2.3445,2.3445,0,2.3259,2.3259,2.3247,2.3268,2.3274,2.3265,2.3298,2.3299,2.3321,2.3341,2.3334,2.3354,2.3364,2.3363,2.3384,2.3353,2.3363,2.3387,2.3418,2.337,2.3354,2.3347,2.344,2.3441,2.3442,2.3443,0,0,2.3168,2.3209,2.3204,2.3213,2.324,2.324,2.3234,2.3244,2.3244,2.3258,2.3252,2.3256,2.3278,2.3286,2.3309,2.3299,2.3256,2.3324,2.3325,2.3309,2.3222,2.3203,2.3195,2.3273,2.3272,2.3271,2.322,0,2.3118,2.311,2.3141,2.3124,2.3125,2.3165,2.3159,2.3174,2.3192,2.3194,2.3214,2.3216,2.3246,2.325,2.3243,2.3263,2.3239,2.3267,2.3267,2.3267,2.326,2.3187,2.3167,2.3117,2.3214,2.3213,2.3212,0,2.3058,2.3069,2.3053,2.308,2.3081,2.3075,2.3087,2.3089,2.3107,2.3121,2.3129,2.3155,2.315,2.3181,2.3173,2.3191,2.3193,2.3203,2.3202,2.3202,2.3236,2.3183,2.3103,2.3095,2.3203,2.3204,2.3204,0,2.2993,2.3003,2.2995,2.3002,2.3033,2.3028,2.3041,2.306,2.3064,2.3074,2.3077,2.3086,2.309,2.3096,2.3124,2.3144,2.3112,2.3146,2.3122,2.3121,2.3112,2.3112,2.3029,2.3115,2.3116,2.3116,2.3116,0,2.2933,2.2921,2.2965,2.296,2.2947,2.2983,2.2969,2.2985,2.3002,2.3,2.3035,2.3032,2.3069,2.307,2.3092,2.3081,2.3083,2.3093,2.3099,2.3089,2.3088,2.309,2.3094,2.3114,2.3114,2.3115,2.3115,0,2.2857,2.2886,2.2879,2.291,2.2918,2.2907,2.2933,2.2928,2.2949,2.2945,2.2946,2.2978,2.2981,2.301,2.3018,2.3033,2.3013,2.3025,2.3007,2.301,2.2985,2.2986,2.2899,2.2889,2.2983,2.2982,2.2981,0,2.2816,2.2808,2.2838,2.2839,2.285,2.2852,2.2856,2.2891,2.2894,2.2913,2.2906,2.2911,2.2918,2.2919,2.2942,2.2949,2.2961,2.2931,2.2962,2.2953,2.2959,2.2959,2.2958,2.2923,2.2922,2.2921,2.292,0,2.274,2.2755,2.2761,2.2771,2.2776,2.2785,2.2797,2.2796,2.2834,2.2835,2.2838,2.2843,2.2852,2.2857,2.2867,2.2879,2.2905,2.291,2.2905,2.2894,2.2884,2.2888,2.2987,2.2912,2.2913,2.2913,2.2914,2.2914,2.268,2.2674,2.2694,2.2699,2.2711,2.2721,2.2719,2.2739,2.2743,2.2753,2.2773,2.2773,2.279,2.2807,2.2817,2.2817,2.2833,2.2825,2.2823,2.282,2.2815,2.2885,2.2819,2.2819,2.282,2.282,2.282,0,2.2604,2.2619,2.2624,2.2639,2.2643,2.2668,2.2683,2.2683,2.2683,2.2697,2.2703,2.2706,2.2711,2.2734,2.2741,2.2736,2.2748,2.2737,2.2737,2.2739,2.2801,2.2804,2.2727,2.2727,2.2727,2.2727,2.2727,2.2727,2.2566,2.2557,2.2574,2.2572,2.2587,2.2588,2.2593,2.2602,2.2614,2.2616,2.262,2.2636,2.2654,2.2662,2.2667,2.2674,2.2674,2.2658,2.2669,2.2726,2.2735,2.2743,2.2747,2.2658,2.2658,2.2607,2.2606,2.2606]}]]